Starlink 11410

operational
NORAD ID: 61946 Int'l Des: 2024-209 Owner: SPXS Country: US Constellation: starlink
LEOCIRCULAR

About Starlink 11410

Description loading...

Live Position

Loading 3D Globe...

Upcoming Passes

Altitude History

Altitude vs Time

uPlot chart will show altitude changes over time

Two-Line Element Set

1 61946U 24209H 25305.25146882 .00045999 00000-0 38247-3 0 9997
2 61946 53.1564 284.5305 0002076 58.1133 302.0086 15.69706425 56549
Epoch: Nov 1, 2025 • Age: 35 hours

Current Status

Altitude 378.7 km
Velocity 7.68 km/s
Sub-Earth Point -52.03°S, 123.38°W
Launch Date Nov 14, 2024
Age 0.9 years
Type internet

Technical Details

Classification Payload
Mass 960.00 kg
Dry Mass 910.00 kg
Total Mass 960.00 kg
Length 0.30 m
Diameter 4.10 m
Span 29.00 m
Shape Box + pan
Manufacturer SPXS
Bus Type Starlink V2MD
Phase Status In Orbit
Owner/State SPXS/US

Large Constellations

Loading constellations...